Weather History for MMTC - March, 2014

Change the Weather History Date:

Tuesday, March 11, 2014

  Actual Average Record
Temperature  
Mean Temperature 68 °F -  
Max Temperature 86 °F 84 °F 87 °F (2006)
Min Temperature 50 °F 57 °F 46 °F (1998)
Cooling Degree Days 3    
Growing Degree Days 18 (Base 50)    
Moisture  
Dew Point 43 °F    
Average Humidity 43    
Maximum Humidity 73    
Minimum Humidity 18    
Precipitation  
Precipitation 0.00 in - - ()
Sea Level Pressure  
Sea Level Pressure 29.86 in    
Wind  
Wind Speed 2 mph ()    
Max Wind Speed 7 mph    
Max Gust Speed -    
Visibility 11.4 miles    
Events      
Averages and records for this station are not official NWS values.
T = Trace of Precipitation, MM = Missing Value Source: Averaged Metar Reports

Daily Weather History Graph

Daily Weather History Graph

Search for Another Location

Airport or City:

Trip Planner

Search our weather history database for the weather conditions in past years. The results will help you decide how hot, cold, wet, or windy it might be!

Date:

Astronomy

Mar. 11, 2014 Rise Set
Actual Time 7:07 AM CST 7:00 PM CST
Civil Twilight 6:44 AM CST 7:23 PM CST
Nautical Twilight 6:17 AM CST 7:50 PM CST
Astronomical Twilight 5:50 AM CST 8:17 PM CST
Moon 2:59 PM CST (3/11) 3:40 AM CST (3/11)
Length of Visible Light 12h 39m
Length of Day
11h 53m
Waxing Gibbous, 78% of the Moon is Illuminated
Mar 11
Waxing Gibbous
Mar 16
Full
Mar 23
Last Quarter
Mar 30
New
Apr 7
First Quarter

Hourly Weather History & Observations

Time (CST) Temp. Dew Point Humidity Pressure Visibility Wind Dir Wind Speed Gust Speed Precip Events Conditions
2:53 AM 58 °F 51 °F 71% 29.88 in 6 mi Calm Calm - -  
5:42 AM 50.0 °F 41.0 °F 71% 29.86 in 8.0 mi ESE 3.5 mph - N/A   Clear
5:55 AM 58 °F 50 °F 68% 29.86 in 6 mi ESE 2.2 mph - -  
6:41 AM 48.2 °F 37.4 °F 66% 30.00 in 8.0 mi Calm Calm - N/A   Clear
7:40 AM 50.0 °F 41.0 °F 71% 30.01 in 10.0 mi ESE 4.6 mph - N/A   Clear
8:45 AM 53.6 °F 42.8 °F 67% 29.91 in 10.0 mi ESE 4.6 mph - N/A   Clear
8:50 AM 53 °F 47 °F 73% 29.94 in 19 mi East 2.2 mph - -  
9:44 AM 59.0 °F 44.6 °F 59% 30.04 in 10.0 mi East 6.9 mph - N/A   Clear
10:42 AM 64.4 °F 44.6 °F 49% 30.03 in 10.0 mi East 5.8 mph - N/A   Clear
11:41 AM 71.6 °F 42.8 °F 35% 29.85 in 10.0 mi Calm Calm - N/A   Clear
11:50 AM 76 °F 56 °F 39% 29.89 in 19 mi SSE 4.5 mph - -  
12:40 PM 75.2 °F 39.2 °F 27% 29.98 in 10.0 mi Calm Calm - N/A   Clear
1:41 PM 75.2 °F 39.2 °F 27% 29.94 in 10.0 mi NNW 3.5 mph - N/A   Clear
2:45 PM 82 °F 58 °F 33% 29.74 in 19 mi ENE 4.5 mph - -  
2:48 PM 77.0 °F 37.4 °F 24% 29.71 in 10.0 mi NE 3.5 mph - N/A   Clear
3:47 PM 80.6 °F 35.6 °F 20% 29.87 in 15.0 mi Calm Calm - N/A   Clear
4:43 PM 80.6 °F 35.6 °F 20% 29.86 in 15.0 mi SSE 3.5 mph - N/A   Clear
5:43 PM 80.6 °F 33.8 °F 18% 29.68 in 15.0 mi NNE 4.6 mph - N/A   Clear
5:45 PM 83 °F 58 °F 32% 29.65 in 19 mi NE 2.2 mph - -  
6:44 PM 78.8 °F 33.8 °F 20% 29.86 in 15.0 mi NNE 6.9 mph - N/A   Clear
7:40 PM 73.4 °F 33.8 °F 23% 29.88 in 10.0 mi NNE 2.3 mph - N/A   Clear
8:40 PM 71.6 °F 37.4 °F 29% 29.77 in 10.0 mi North 6.9 mph - N/A   Clear
8:46 PM 71 °F 60 °F 59% 29.66 in 6 mi Calm Calm - -  
9:43 PM 68.0 °F 37.4 °F 33% 29.93 in 10.0 mi East 4.6 mph - N/A   Clear
10:50 PM 64.4 °F 37.4 °F 37% 29.94 in 10.0 mi Calm Calm - N/A   Clear
11:49 PM 65 °F 53 °F 57% 29.70 in 6 mi SSE 2.2 mph - -